STARLINK-2446, 47844

Orbit data source: Space-Track

STARLINK-2446, 47844 is a payload satellite owned by SpaceX/Seattle (US) in LEO that was launched on Thu, 11 Mar 2021 UTC via an FALCON 9 launch vehicle from the Air Force Eastern Test Range (AFETR). Payload-class satellites include a variety of spacecraft equipped with specific instruments for various scientific and technological missions. These include communications satellites like Starlink; space stations such as the ISS; scientific satellites like the Hubble; Earth observation satellites from companies like Planet Labs, Umbra, and HawkEye 360; GPS; miniature CubeSats for education and research; and military/defense satellites.

Loading next visibility...
Identifier
47844, 2021-018BK
Orbit
LEO
Country
Flag of USUS
Related business
Manufacturer
SpaceX/Seattle
Mission
Operational Commercial Communications
Bus & Motor
STARLINK, Unknown motor
Mass
260 kg wet, ~248 kg dry
Launch date (UTC)
2021-03-11 (5 years ago)
Launch vehicle
FALCON 9
Launch site
Air Force Eastern Test Range (AFETR)
Object type
Payload
Rocket body
Debris
Shape & HBR
Box + 1 Pan, 10.1 m
Radar Cross Section
13.562 m², Large (>1 m²)

Expand to show TLE details & history
Last TLE update: 9 hours ago

TLE from 9 hours ago
0 STARLINK-2446
1 47844U 21018BK  25292.90896826  .00010172  00000-0  70040-3 0  9992
2 47844  53.0529 163.6080 0001152  94.4280 265.6840 15.06421157255378
Epoch: 2025-10-19T21:48Z
TLE epoch observation values (Epoch: 2025-10-19T21:48:54.857Z)
Latitude
-0.00008°
Longitude
167.76049°
Altitude
548.086 km
Speed
7.589 km/s
True Right ascension
10h 54m 25s
True Declination
0° 00' 00"
Sunlit
Object was in daylight at epoch
Visualization orbit readout
Latitude
Unknown
Longitude
Unknown
Altitude
Unknown
Speed
Unknown
Apparent Right ascension
Unknown
Apparent Declination
Unknown
Sunlit
N/A
Visualization observer readout
Local Sidereal Time
01:20:09
Azimuth
Unknown
Elevation
Unknown
Doppler factor
Unknown
Orbital elements
Apogee altitude
548.216 km
Perigee altitude
546.62 km
Semi-major axis
6,925.555 km
Eccentricity
0.00012
Inclination
53.0529°
RAAN
163.608°
Arg. of periapsis
94.428°
True anomaly
265.67084°
Mean anomaly
265.684°
Eccentric anomaly
265.67742°
Mean motion
3.76584 °/min
Orbital period
95.6 mins
BSTAR
0.0007004
Loading maneuver chart data...
Computing Atmospheric mass density...
Loading historical data...
Loading historical data...
Loading historical data...
Loading historical data...
Loading historical data...
Loading historical data...
Loading historical data...

Documentation

Showing up to 5 results
|